Weather History for Agadir Al Massira, Morocco

Change the Weather History Date:

Monday, March 18, 2013

  Actual Average Record
Temperature  
Mean Temperature 66 °F -  
Max Temperature 72 °F - - ()
Min Temperature 59 °F - - ()
Growing Degree Days 16 (Base 50)    
Moisture  
Dew Point 59 °F    
Average Humidity 80    
Maximum Humidity 94    
Minimum Humidity 53    
Precipitation  
Precipitation 0.00 in - - ()
Sea Level Pressure  
Sea Level Pressure 29.86 in    
Wind  
Wind Speed 3 mph ()    
Max Wind Speed 16 mph    
Max Gust Speed -    
Visibility 5.8 miles    
Events      
T = Trace of Precipitation, MM = Missing Value Source: Averaged Metar Reports

Daily Weather History Graph

Daily Weather History Graph

Search for Another Location

Airport:

Trip Planner

Search our weather history database for the weather conditions in past years. The results will help you decide how hot, cold, wet, or windy it might be!

Date:

Astronomy

Mar. 18, 2013 Rise Set
Actual Time 6:43 AM WET 6:47 PM WET
Civil Twilight 6:19 AM WET 7:11 PM WET
Nautical Twilight 5:52 AM WET 7:39 PM WET
Astronomical Twilight 5:23 AM WET 8:07 PM WET
Moon 10:56 AM WET (3/18) 12:13 AM WET (3/18)
Length of Visible Light 12h 51m
Length of Day
12h 04m
Waxing Crescent, 39% of the Moon is Illuminated
Mar 18
Waxing Crescent
Mar 19
First Quarter
Mar 27
Full
Apr 3
Last Quarter
Apr 10
New

Hourly Weather History & Observations

Time (WET) Temp. Dew Point Humidity Pressure Visibility Wind Dir Wind Speed Gust Speed Precip Events Conditions
12:00 AM 62 °F 59 °F 88% 29.85 in 5 mi Calm Calm - -   Partly Cloudy
12:00 AM 62.6 °F 59.0 °F 88% 29.83 in 5.0 mi Calm Calm - N/A   Scattered Clouds
1:00 AM 62.6 °F 60.8 °F 94% 29.83 in 6.2 mi Calm Calm - N/A   Scattered Clouds
2:00 AM 62.6 °F 59.0 °F 88% 29.83 in 6.2 mi Calm Calm - N/A   Scattered Clouds
3:00 AM 63 °F 60 °F 86% 29.83 in 6 mi SSW 4.6 mph - -   Partly Cloudy
3:00 AM 62.6 °F 60.8 °F 94% 29.83 in 6.2 mi SSW 4.6 mph - N/A   Scattered Clouds
4:00 AM 62.6 °F 60.8 °F 94% 29.83 in 6.2 mi Calm Calm - N/A   Scattered Clouds
5:00 AM 62.6 °F 59.0 °F 88% 29.83 in 5.0 mi Calm Calm - N/A   Scattered Clouds
6:00 AM 60 °F 58 °F 90% 29.86 in 5 mi West 3.5 mph - -   Partly Cloudy
6:00 AM 60.8 °F 57.2 °F 88% 29.86 in 5.0 mi West 3.5 mph - N/A   Scattered Clouds
7:00 AM 60.8 °F 59.0 °F 94% 29.86 in 3.7 mi Calm Calm - N/A   Scattered Clouds
8:00 AM 62.6 °F 60.8 °F 94% 29.89 in 6.2 mi Calm Calm - N/A   Scattered Clouds
9:00 AM 64 °F 60 °F 84% 29.91 in 5 mi WSW 5.8 mph - -   Mostly Cloudy
9:00 AM 64.4 °F 60.8 °F 88% 29.89 in 5.0 mi WSW 5.8 mph - N/A   Mostly Cloudy
10:00 AM 68.0 °F 59.0 °F 73% 29.89 in 6.2 mi SSW 4.6 mph - N/A   Scattered Clouds
11:00 AM 66.2 °F 59.0 °F 78% 29.89 in 6.2 mi West 6.9 mph - N/A   Scattered Clouds
12:00 PM 69 °F 58 °F 60% 29.90 in 6 mi WSW 3.5 mph - -   Mostly Cloudy
12:00 PM 68.0 °F 57.2 °F 68% 29.89 in 6.2 mi WSW 3.5 mph - N/A   Scattered Clouds
1:00 PM 71.6 °F 59.0 °F 64% 29.89 in 6.2 mi Variable 6.9 mph - N/A   Scattered Clouds
2:00 PM 73.4 °F 59.0 °F 61% 29.86 in 6.2 mi West 9.2 mph - N/A   Scattered Clouds
3:00 PM 71 °F 57 °F 53% 29.85 in 6 mi West 12.7 mph - -   Partly Cloudy
3:00 PM 71.6 °F 57.2 °F 60% 29.86 in 6.2 mi West 12.7 mph - N/A   Scattered Clouds
4:00 PM 71.6 °F 57.2 °F 60% 29.83 in 6.2 mi West 15.0 mph - N/A   Scattered Clouds
5:00 PM 69.8 °F 59.0 °F 68% 29.86 in 6.2 mi West 16.1 mph - N/A   Scattered Clouds
6:00 PM 67 °F 59 °F 68% 29.85 in 6 mi West 12.7 mph - -   Partly Cloudy
6:00 PM 66.2 °F 59.0 °F 78% 29.83 in 6.2 mi West 12.7 mph - N/A   Scattered Clouds
7:00 PM 64.4 °F 57.2 °F 77% 29.83 in 6.2 mi WSW 4.6 mph - N/A   Scattered Clouds
8:00 PM 62.6 °F 57.2 °F 82% 29.86 in 6.2 mi SW 3.5 mph - N/A   Scattered Clouds
9:00 PM 61 °F 57 °F 84% 29.88 in 6 mi South 4.6 mph - -   Scattered Clouds
9:00 PM 60.8 °F 57.2 °F 88% 29.86 in 6.2 mi South 4.6 mph - N/A   Scattered Clouds
10:00 PM 62.6 °F 59.0 °F 88% 29.89 in 6.2 mi SSW 1.2 mph - N/A   Scattered Clouds
11:00 PM 62.6 °F 59.0 °F 88% 29.89 in 6.2 mi Calm Calm - N/A   Scattered Clouds